Triuchirapalli, India

7:36 AM IST on April 22, 2018 (GMT +0530)
Tiruchirappalli

Weather History for VOTR - September, 2013

Change the Weather History Date:

Sunday, September 22, 2013

  Actual Average Record
Temperature  
Mean Temperature 87 °F -  
Max Temperature 97 °F 87 °F 102 °F (2015)
Min Temperature 77 °F 77 °F 35 °F (2002)
Cooling Degree Days 22    
Growing Degree Days 37 (Base 50)    
Moisture  
Dew Point 68 °F    
Average Humidity 51    
Maximum Humidity 69    
Minimum Humidity 26    
Precipitation  
Precipitation 0.00 in - - ()
Sea Level Pressure  
Sea Level Pressure 29.70 in    
Wind  
Wind Speed 12 mph ()    
Max Wind Speed 18 mph    
Max Gust Speed 30 mph    
Visibility 4.1 miles    
Events      
Averages and records for this station are not official NWS values.
T = Trace of Precipitation, MM = Missing Value Source: Averaged Metar Reports

Daily Weather History Graph

Daily Weather History Graph

Search for Another Location

Airport or City:

Astronomy

Sep. 22, 2013 Rise Set
Actual Time 6:04 AM IST 6:11 PM IST
Civil Twilight 5:43 AM IST 6:32 PM IST
Nautical Twilight 5:18 AM IST 6:56 PM IST
Astronomical Twilight 4:54 AM IST 7:21 PM IST
Moon 8:23 PM IST 8:19 AM IST
Length of Visible Light 12h 49m
Length of Day
12h 06m
Waning Gibbous, 91% of the Moon is Illuminated
Sep 22
Waning Gibbous
Sep 27
Last Quarter
Oct 5
New
Oct 12
First Quarter
Oct 19
Full

Hourly Weather History & Observations

Time (IST) Temp. Heat Index Dew Point Humidity Pressure Visibility Wind Dir Wind Speed Gust Speed Precip Events Conditions
12:10 AM 82.4 °F 84.6 °F 66.2 °F 58% 29.71 in 3.7 mi West 9.2 mph 20.7 mph N/A   Scattered Clouds
12:40 AM 82.4 °F 85.4 °F 68.0 °F 62% 29.71 in 3.7 mi West 11.5 mph 23.0 mph N/A   Scattered Clouds
1:10 AM 82.4 °F 85.4 °F 68.0 °F 62% 29.71 in 3.7 mi West 11.5 mph 23.0 mph N/A   Scattered Clouds
2:10 AM 82.4 °F 85.4 °F 68.0 °F 62% 29.71 in 3.7 mi West 11.5 mph 23.0 mph N/A   Scattered Clouds
2:30 AM 81 °F - 68 °F 57% 29.70 in 2 mi WNW 13.8 mph - -   Haze
2:40 AM 80.6 °F 83.2 °F 68.0 °F 65% 29.71 in 3.7 mi WNW 13.8 mph - N/A   Scattered Clouds
3:10 AM 80.6 °F 83.2 °F 68.0 °F 65% 29.68 in 3.7 mi WNW 13.8 mph - N/A   Scattered Clouds
3:40 AM 80.6 °F 83.2 °F 68.0 °F 65% 29.68 in 3.7 mi WNW 13.8 mph - N/A   Scattered Clouds
4:10 AM 80.6 °F 83.2 °F 68.0 °F 65% 29.68 in 3.7 mi WNW 13.8 mph - N/A   Scattered Clouds
5:10 AM 80.6 °F 83.2 °F 68.0 °F 65% 29.71 in 3.7 mi WNW 13.8 mph - N/A   Scattered Clouds
5:40 AM 78.8 °F - 68.0 °F 69% 29.71 in 3.7 mi WNW 13.8 mph - N/A   Scattered Clouds
6:10 AM 78.8 °F - 68.0 °F 69% 29.71 in 3.7 mi WNW 11.5 mph - N/A   Scattered Clouds
6:40 AM 80.6 °F 83.2 °F 68.0 °F 65% 29.74 in 3.7 mi WNW 11.5 mph - N/A   Scattered Clouds
7:10 AM 82.4 °F 86.3 °F 69.8 °F 66% 29.74 in 3.7 mi West 11.5 mph - N/A   Scattered Clouds
7:40 AM 84.2 °F 88.4 °F 69.8 °F 62% 29.74 in 3.7 mi West 11.5 mph - N/A   Scattered Clouds
8:10 AM 84.2 °F 88.4 °F 69.8 °F 62% 29.77 in 3.7 mi West 13.8 mph - N/A   Scattered Clouds
8:30 AM 84 °F - 70 °F 54% 29.76 in 2 mi West 13.8 mph - -   Haze
8:40 AM 86.0 °F 90.4 °F 69.8 °F 58% 29.77 in 3.7 mi West 11.5 mph 23.0 mph N/A   Scattered Clouds
9:10 AM 87.8 °F 92.6 °F 69.8 °F 55% 29.77 in 3.7 mi West 12.7 mph 24.2 mph N/A   Partly Cloudy
9:40 AM 87.8 °F 92.6 °F 69.8 °F 55% 29.77 in 3.7 mi West 13.8 mph 25.3 mph N/A   Unknown
10:10 AM 89.6 °F 94.7 °F 69.8 °F 52% 29.77 in 3.7 mi West 13.8 mph 25.3 mph N/A   Unknown
10:40 AM 91.4 °F 96.8 °F 69.8 °F 49% 29.74 in 3.7 mi West 15.0 mph 26.5 mph N/A   Unknown
11:10 AM 93.2 °F 97.7 °F 68.0 °F 44% 29.74 in 4.3 mi West 15.0 mph 26.5 mph N/A   Partly Cloudy
11:30 AM 92 °F - 69 °F 38% 29.73 in 2 mi West 17.3 mph - -   Haze
11:40 AM 93.2 °F 98.8 °F 69.8 °F 46% 29.74 in 5.0 mi West 13.8 mph 25.3 mph N/A   Partly Cloudy
12:10 PM 95.0 °F 101.3 °F 69.8 °F 44% 29.71 in 5.0 mi West 13.8 mph 25.3 mph N/A   Partly Cloudy
12:40 PM 95.0 °F 101.3 °F 69.8 °F 44% 29.68 in 6.2 mi West 12.7 mph 24.2 mph N/A   Partly Cloudy
1:10 PM 96.8 °F 101.8 °F 68.0 °F 39% 29.68 in 6.2 mi West 18.4 mph 29.9 mph N/A   Partly Cloudy
1:40 PM 96.8 °F 101.8 °F 68.0 °F 39% 29.65 in 6.2 mi WNW 17.3 mph 28.8 mph N/A   Partly Cloudy
2:10 PM 98.6 °F 104.1 °F 68.0 °F 37% 29.65 in 6.2 mi West 17.3 mph 28.8 mph N/A   Partly Cloudy
2:30 PM 97 °F - 66 °F 26% 29.62 in 2 mi WNW 18.4 mph - -   Haze
2:40 PM 98.6 °F 104.1 °F 68.0 °F 37% 29.62 in 6.2 mi West 18.4 mph 29.9 mph N/A   Partly Cloudy
3:10 PM 98.6 °F 104.1 °F 68.0 °F 37% 29.62 in 6.2 mi WNW 17.3 mph 28.8 mph N/A   Partly Cloudy
3:40 PM 98.6 °F 104.1 °F 68.0 °F 37% 29.62 in 6.2 mi WNW 16.1 mph 27.6 mph N/A   Scattered Clouds
4:10 PM 96.8 °F 100.7 °F 66.2 °F 37% 29.62 in 6.2 mi West 17.3 mph 28.8 mph N/A   Scattered Clouds
4:40 PM 96.8 °F 100.7 °F 66.2 °F 37% 29.62 in 6.2 mi West 17.3 mph 28.8 mph N/A   Scattered Clouds
5:10 PM 95.0 °F 101.3 °F 69.8 °F 44% 29.62 in 6.2 mi WNW 18.4 mph 29.9 mph N/A   Scattered Clouds
5:30 PM 94 °F - 65 °F 28% 29.62 in 2 mi WNW 15.0 mph - -   Haze
5:40 PM 93.2 °F 96.2 °F 66.2 °F 41% 29.62 in 5.0 mi West 13.8 mph 25.3 mph N/A   Scattered Clouds
6:10 PM 93.2 °F 96.2 °F 66.2 °F 41% 29.65 in 5.0 mi West 12.7 mph 24.2 mph N/A   Scattered Clouds
6:40 PM 91.4 °F 94.0 °F 66.2 °F 43% 29.65 in 4.3 mi West 13.8 mph 25.3 mph N/A   Scattered Clouds
7:10 PM 91.4 °F 94.0 °F 66.2 °F 43% 29.68 in 3.7 mi West 8.1 mph - N/A   Scattered Clouds
7:40 PM 91.4 °F 94.0 °F 66.2 °F 43% 29.68 in 3.7 mi West 12.7 mph - N/A   Scattered Clouds
8:10 PM 87.8 °F 91.4 °F 68.0 °F 52% 29.71 in 3.7 mi West 10.4 mph - N/A   Partly Cloudy
8:30 PM 87 °F - 66 °F 40% 29.70 in 2 mi West 10.4 mph - -   Haze
8:40 PM 87.8 °F 91.4 °F 68.0 °F 52% 29.71 in 3.7 mi West 11.5 mph - N/A   Partly Cloudy
9:10 PM 86.0 °F 89.4 °F 68.0 °F 55% 29.71 in 3.7 mi West 11.5 mph - N/A   Partly Cloudy
9:40 PM 86.0 °F 89.4 °F 68.0 °F 55% 29.71 in 3.7 mi WNW 15.0 mph 26.5 mph N/A   Partly Cloudy
10:10 PM 86.0 °F 89.4 °F 68.0 °F 55% 29.74 in 3.7 mi WNW 13.8 mph 25.3 mph N/A   Partly Cloudy
10:40 PM 84.2 °F 86.6 °F 66.2 °F 55% 29.74 in 3.7 mi West 10.4 mph 21.9 mph N/A   Partly Cloudy
11:10 PM 84.2 °F 87.3 °F 68.0 °F 58% 29.74 in 3.7 mi West 9.2 mph - N/A   Partly Cloudy
11:30 PM 83 °F - 67 °F 48% 29.74 in 2 mi West 6.9 mph - -   Haze
11:40 PM 82.4 °F 85.4 °F 68.0 °F 62% 29.74 in 3.7 mi West 6.9 mph - N/A   Partly Cloudy